| time (UTC) | temp F | wind direction | speed MPH | gust MPH | rain 1hr in | rain 24hr in | rain mn in | humidity % | barometer mb |
| 20260503200326 | 85 | 268 | 7.0 | 10.0 | 0.00 | 0.00 | 0.00 | 37 | 995.1 |
| 20260503195824 | 85 | 224 | 10.0 | 12.0 | 0.00 | 0.00 | 0.00 | 40 | 995.1 |
| 20260503195320 | 85 | 243 | 11.0 | 12.0 | 0.00 | 0.00 | 0.00 | 40 | 995.1 |
| 20260503194818 | 86 | 353 | 6.0 | 7.0 | 0.00 | 0.00 | 0.00 | 37 | 995.4 |
| 20260503194314 | 86 | 268 | 5.0 | 5.0 | 0.00 | 0.00 | 0.00 | 34 | 995.4 |
| 20260503193810 | 86 | 220 | 7.0 | 10.0 | 0.00 | 0.00 | 0.00 | 35 | 995.4 |
| 20260503193306 | 86 | 141 | 4.0 | 10.0 | 0.00 | 0.00 | 0.00 | 36 | 995.4 |
| 20260503192802 | 86 | 265 | 8.0 | 10.0 | 0.00 | 0.00 | 0.00 | 37 | 995.8 |
| 20260503192257 | 86 | 162 | 4.0 | 5.0 | 0.00 | 0.00 | 0.00 | 35 | 995.4 |
| 20260503191754 | 86 | 198 | 7.0 | 10.0 | 0.00 | 0.00 | 0.00 | 34 | 995.8 |
| 20260503191251 | 85 | 204 | 5.0 | 7.0 | 0.00 | 0.00 | 0.00 | 36 | 995.8 |
| 20260503190748 | 85 | 280 | 8.0 | 10.0 | 0.00 | 0.00 | 0.00 | 32 | 995.8 |
| 20260503190245 | 85 | 299 | 4.0 | 5.0 | 0.00 | 0.00 | 0.00 | 35 | 995.8 |
| 20260503185742 | 85 | 311 | 5.0 | 7.0 | 0.00 | 0.00 | 0.00 | 36 | 995.8 |
| 20260503185237 | 85 | 271 | 3.0 | 5.0 | 0.00 | 0.00 | 0.00 | 35 | 995.8 |
| 20260503184727 | 84 | 308 | 4.0 | 5.0 | 0.00 | 0.00 | 0.00 | 34 | 995.8 |
| 20260503184224 | 83 | 191 | 5.0 | 7.0 | 0.00 | 0.00 | 0.00 | 36 | 995.8 |
| 20260503183720 | 83 | 267 | 3.0 | 10.0 | 0.00 | 0.00 | 0.00 | 36 | 995.8 |
| 20260503183217 | 82 | 231 | 5.0 | 7.0 | 0.00 | 0.00 | 0.00 | 38 | 996.1 |
| 20260503182716 | 82 | 262 | 5.0 | 10.0 | 0.00 | 0.00 | 0.00 | 41 | 996.1 |
| 20260503182214 | 82 | 233 | 7.0 | 10.0 | 0.00 | 0.00 | 0.00 | 43 | 996.1 |
| 20260503181710 | 82 | 241 | 13.0 | 15.0 | 0.00 | 0.00 | 0.00 | 41 | 996.1 |
| 20260503181207 | 82 | 205 | 8.0 | 10.0 | 0.00 | 0.00 | 0.00 | 41 | 996.1 |
| 20260503180703 | 82 | 253 | 7.0 | 10.0 | 0.00 | 0.00 | 0.00 | 41 | 995.8 |
| 20260503180203 | 82 | 198 | 10.0 | 12.0 | 0.00 | 0.00 | 0.00 | 42 | 996.1 |
| 20260503175659 | 82 | 181 | 8.0 | 10.0 | 0.00 | 0.00 | 0.00 | 42 | 996.1 |
| 20260503175156 | 83 | 262 | 8.0 | 10.0 | 0.00 | 0.00 | 0.00 | 42 | 996.1 |
| 20260503174652 | 83 | 242 | 11.0 | 12.0 | 0.00 | 0.00 | 0.00 | 42 | 996.1 |
| 20260503174150 | 83 | 266 | 8.0 | 10.0 | 0.00 | 0.00 | 0.00 | 42 | 995.8 |
| 20260503173645 | 84 | 193 | 8.0 | 10.0 | 0.00 | 0.00 | 0.00 | 42 | 996.1 |
| 20260503173141 | 84 | 274 | 7.0 | 10.0 | 0.00 | 0.00 | 0.00 | 42 | 995.8 |
| 20260503172638 | 84 | 202 | 5.0 | 7.0 | 0.00 | 0.00 | 0.00 | 41 | 995.8 |
| 20260503172136 | 83 | 199 | 6.0 | 7.0 | 0.00 | 0.00 | 0.00 | 40 | 995.8 |
| 20260503171632 | 83 | 275 | 9.0 | 10.0 | 0.00 | 0.00 | 0.00 | 41 | 996.1 |
| 20260503171130 | 83 | 110 | 0.0 | 0.0 | 0.00 | 0.00 | 0.00 | 38 | 995.8 |
| 20260503170626 | 83 | 241 | 1.0 | 3.0 | 0.00 | 0.00 | 0.00 | 43 | 996.1 |
| 20260503170123 | 83 | 37 | 0.0 | 0.0 | 0.00 | 0.00 | 0.00 | 43 | 996.1 |
| 20260503150515 | 82 | 93 | 1.0 | 3.0 | 0.00 | 0.00 | 0.00 | 41 | 995.1 |
| 20260503131407 | 75 | 265 | 20.0 | 25.0 | 0.00 | 0.00 | 0.00 | 42 | 993.7 |
| 20260503130904 | 75 | 296 | 9.0 | 15.0 | 0.00 | 0.00 | 0.00 | 40 | 993.7 |
| 20260503130402 | 76 | 176 | 12.0 | 15.0 | 0.00 | 0.00 | 0.00 | 38 | 993.7 |
| 20260503110806 | 75 | 147 | 5.0 | 7.0 | 0.00 | 0.00 | 0.00 | 32 | 992.7 |
| 20260503110303 | 75 | 175 | 4.0 | 7.0 | 0.00 | 0.00 | 0.00 | 34 | 992.7 |
| 20260503100229 | 71 | 265 | 15.0 | 17.0 | 0.00 | 0.00 | 0.00 | 52 | 993.4 |
| 20260503090153 | 76 | 306 | 12.0 | 17.0 | 0.00 | 0.00 | 0.00 | 40 | 993.4 |
| 20260503081624 | 78 | 227 | 7.0 | 10.0 | 0.00 | 0.00 | 0.00 | 30 | 994.1 |
| 20260503081121 | 78 | 282 | 3.0 | 5.0 | 0.00 | 0.00 | 0.00 | 30 | 994.1 |
| 20260503080617 | 78 | 304 | 4.0 | 5.0 | 0.00 | 0.00 | 0.00 | 28 | 994.1 |
| 20260503080114 | 77 | 272 | 11.0 | 12.0 | 0.00 | 0.00 | 0.00 | 30 | 994.1 |
| 20260503072551 | 79 | 312 | 9.0 | 10.0 | 0.00 | 0.00 | 0.00 | 31 | 994.4 |
| 20260503072048 | 79 | 282 | 13.0 | 17.0 | 0.00 | 0.00 | 0.00 | 31 | 994.4 |
| 20260503071545 | 80 | 333 | 10.0 | 17.0 | 0.00 | 0.00 | 0.00 | 29 | 994.4 |
| 20260503071042 | 80 | 303 | 1.0 | 3.0 | 0.00 | 0.00 | 0.00 | 27 | 994.4 |
| 20260503070538 | 80 | 332 | 5.0 | 7.0 | 0.00 | 0.00 | 0.00 | 29 | 994.7 |
| 20260503054957 | 80 | 282 | 5.0 | 5.0 | 0.00 | 0.00 | 0.00 | 24 | 994.7 |
| 20260503054453 | 80 | 292 | 2.0 | 3.0 | 0.00 | 0.00 | 0.00 | 23 | 994.7 |
| 20260503053950 | 80 | 290 | 4.0 | 7.0 | 0.00 | 0.00 | 0.00 | 23 | 994.7 |
| 20260503053448 | 80 | 288 | 6.0 | 7.0 | 0.00 | 0.00 | 0.00 | 22 | 994.4 |
| 20260503052944 | 80 | 287 | 7.0 | 7.0 | 0.00 | 0.00 | 0.00 | 22 | 994.4 |
| 20260503052442 | 80 | 281 | 3.0 | 5.0 | 0.00 | 0.00 | 0.00 | 22 | 994.4 |
| 20260503051938 | 80 | 270 | 7.0 | 7.0 | 0.00 | 0.00 | 0.00 | 23 | 994.1 |
| 20260503051434 | 80 | 313 | 1.0 | 3.0 | 0.00 | 0.00 | 0.00 | 23 | 994.4 |
| 20260503050932 | 80 | 235 | 1.0 | 3.0 | 0.00 | 0.00 | 0.00 | 24 | 994.1 |
| 20260503050427 | 80 | 257 | 4.0 | 5.0 | 0.00 | 0.00 | 0.00 | 24 | 994.4 |
| 20260503045925 | 80 | 295 | 3.0 | 5.0 | 0.00 | 0.00 | 0.00 | 25 | 994.4 |
| 20260503045422 | 80 | 170 | 2.0 | 3.0 | 0.00 | 0.00 | 0.00 | 25 | 994.1 |
| 20260503044919 | 80 | 264 | 1.0 | 3.0 | 0.00 | 0.00 | 0.00 | 25 | 994.1 |
| 20260503044416 | 80 | 268 | 0.0 | 3.0 | 0.00 | 0.00 | 0.00 | 25 | 994.1 |
| 20260503043914 | 80 | 30 | 0.0 | 0.0 | 0.00 | 0.00 | 0.00 | 24 | 994.1 |
| 20260503043410 | 80 | 280 | 3.0 | 3.0 | 0.00 | 0.00 | 0.00 | 24 | 994.1 |
| 20260503042906 | 80 | 288 | 5.0 | 7.0 | 0.00 | 0.00 | 0.00 | 24 | 994.1 |
| 20260503042403 | 80 | 298 | 0.0 | 3.0 | 0.00 | 0.00 | 0.00 | 24 | 993.7 |
| 20260503041859 | 80 | 282 | 3.0 | 5.0 | 0.00 | 0.00 | 0.00 | 25 | 993.7 |
| 20260503041356 | 80 | 190 | 1.0 | 3.0 | 0.00 | 0.00 | 0.00 | 25 | 993.7 |
| 20260503040854 | 80 | 333 | 2.0 | 3.0 | 0.00 | 0.00 | 0.00 | 26 | 993.7 |
| 20260503040351 | 80 | 233 | 4.0 | 5.0 | 0.00 | 0.00 | 0.00 | 27 | 993.7 |
| 20260503035848 | 80 | 266 | 3.0 | 5.0 | 0.00 | 0.00 | 0.00 | 26 | 993.7 |
| 20260503035345 | 81 | 15 | 0.0 | 0.0 | 0.00 | 0.00 | 0.00 | 27 | 993.4 |
| 20260503034842 | 81 | 296 | 8.0 | 10.0 | 0.00 | 0.00 | 0.00 | 25 | 993.4 |
| 20260503034340 | 81 | 217 | 6.0 | 7.0 | 0.00 | 0.00 | 0.00 | 23 | 993.4 |
| 20260503033837 | 81 | 240 | 5.0 | 5.0 | 0.00 | 0.00 | 0.00 | 22 | 993.4 |
| 20260503033334 | 81 | 285 | 7.0 | 7.0 | 0.00 | 0.00 | 0.00 | 24 | 993.4 |
| 20260503032832 | 80 | 245 | 3.0 | 5.0 | 0.00 | 0.00 | 0.00 | 24 | 993.0 |
| 20260503032331 | 80 | 306 | 6.0 | 7.0 | 0.00 | 0.00 | 0.00 | 24 | 993.4 |
| 20260503031828 | 80 | 304 | 6.0 | 7.0 | 0.00 | 0.00 | 0.00 | 26 | 993.4 |
| 20260503031326 | 80 | 280 | 4.0 | 5.0 | 0.00 | 0.00 | 0.00 | 26 | 993.4 |
| 20260503030822 | 81 | 286 | 7.0 | 10.0 | 0.00 | 0.00 | 0.00 | 28 | 993.0 |
| 20260503030318 | 81 | 272 | 8.0 | 10.0 | 0.00 | 0.00 | 0.00 | 29 | 993.0 |
| 20260503025815 | 81 | 298 | 6.0 | 10.0 | 0.00 | 0.00 | 0.00 | 29 | 993.0 |
| 20260503025313 | 81 | 265 | 4.0 | 7.0 | 0.00 | 0.00 | 0.00 | 26 | 993.0 |
| 20260503024809 | 81 | 271 | 5.0 | 7.0 | 0.00 | 0.00 | 0.00 | 26 | 993.0 |
| 20260503024306 | 81 | 225 | 2.0 | 3.0 | 0.00 | 0.00 | 0.00 | 26 | 993.0 |
| 20260503023803 | 81 | 216 | 10.0 | 12.0 | 0.00 | 0.00 | 0.00 | 27 | 993.0 |
| 20260503023301 | 81 | 301 | 7.0 | 10.0 | 0.00 | 0.00 | 0.00 | 28 | 992.7 |
| 20260503022757 | 82 | 284 | 8.0 | 12.0 | 0.00 | 0.00 | 0.00 | 25 | 992.7 |
| 20260503022256 | 82 | 267 | 3.0 | 5.0 | 0.00 | 0.00 | 0.00 | 25 | 992.7 |
| 20260503021753 | 82 | 299 | 8.0 | 10.0 | 0.00 | 0.00 | 0.00 | 28 | 992.7 |
| 20260503021249 | 82 | 283 | 5.0 | 7.0 | 0.00 | 0.00 | 0.00 | 28 | 992.7 |
| 20260503020747 | 82 | 313 | 1.0 | 3.0 | 0.00 | 0.00 | 0.00 | 21 | 992.7 |
| 20260503020245 | 82 | 237 | 2.0 | 3.0 | 0.00 | 0.00 | 0.00 | 21 | 992.7 |
| 20260503015741 | 82 | 300 | 5.0 | 7.0 | 0.00 | 0.00 | 0.00 | 20 | 992.4 |
| 20260503015238 | 82 | 115 | 0.0 | 3.0 | 0.00 | 0.00 | 0.00 | 22 | 992.4 |
| 20260503014733 | 82 | 202 | 4.0 | 5.0 | 0.00 | 0.00 | 0.00 | 20 | 992.4 |
| 20260503014232 | 82 | 277 | 3.0 | 5.0 | 0.00 | 0.00 | 0.00 | 20 | 992.4 |
| 20260503013729 | 82 | 201 | 2.0 | 5.0 | 0.00 | 0.00 | 0.00 | 20 | 992.0 |
| 20260503013226 | 83 | 180 | 0.0 | 3.0 | 0.00 | 0.00 | 0.00 | 22 | 992.4 |
| 20260503012724 | 83 | 271 | 5.0 | 5.0 | 0.00 | 0.00 | 0.00 | 22 | 992.0 |
| 20260503012220 | 83 | 323 | 1.0 | 3.0 | 0.00 | 0.00 | 0.00 | 22 | 992.4 |
| 20260503011717 | 83 | 149 | 3.0 | 5.0 | 0.00 | 0.00 | 0.00 | 22 | 992.0 |
| 20260503011214 | 84 | 298 | 3.0 | 5.0 | 0.00 | 0.00 | 0.00 | 23 | 992.4 |
| 20260503010710 | 84 | 278 | 4.0 | 5.0 | 0.00 | 0.00 | 0.00 | 22 | 992.4 |
| 20260503010207 | 85 | 223 | 7.0 | 10.0 | 0.00 | 0.00 | 0.00 | 23 | 992.4 |
| 20260503005705 | 86 | 287 | 4.0 | 7.0 | 0.00 | 0.00 | 0.00 | 23 | 992.4 |
| 20260503005202 | 86 | 269 | 6.0 | 7.0 | 0.00 | 0.00 | 0.00 | 22 | 992.4 |
| 20260503004658 | 87 | 279 | 3.0 | 5.0 | 0.00 | 0.00 | 0.00 | 21 | 992.4 |
| 20260503004157 | 87 | 243 | 5.0 | 10.0 | 0.00 | 0.00 | 0.00 | 21 | 992.0 |
| 20260503003653 | 87 | 274 | 7.0 | 7.0 | 0.00 | 0.00 | 0.00 | 21 | 992.0 |
| 20260503003150 | 87 | 206 | 6.0 | 7.0 | 0.00 | 0.00 | 0.00 | 21 | 992.0 |
| 20260503002647 | 88 | 279 | 6.0 | 7.0 | 0.00 | 0.00 | 0.00 | 21 | 992.0 |
| 20260503002144 | 87 | 299 | 6.0 | 7.0 | 0.00 | 0.00 | 0.00 | 20 | 992.0 |
| 20260503001639 | 87 | 296 | 3.0 | 5.0 | 0.00 | 0.00 | 0.00 | 21 | 991.7 |
| 20260503001137 | 87 | 160 | 2.0 | 5.0 | 0.00 | 0.00 | 0.00 | 20 | 992.0 |
| 20260503000635 | 88 | 292 | 6.0 | 7.0 | 0.00 | 0.00 | 0.00 | 20 | 992.0 |
| 20260503000132 | 88 | 191 | 2.0 | 3.0 | 0.00 | 0.00 | 0.00 | 19 | 991.7 |
| 20260502235628 | 88 | 234 | 6.0 | 7.0 | 0.00 | 0.00 | 0.00 | 20 | 992.0 |
| 20260502235127 | 88 | 225 | 7.0 | 10.0 | 0.00 | 0.00 | 0.00 | 20 | 992.4 |
| 20260502234622 | 88 | 186 | 6.0 | 10.0 | 0.00 | 0.00 | 0.00 | 20 | 992.0 |
| 20260502234120 | 88 | 265 | 3.0 | 5.0 | 0.00 | 0.00 | 0.00 | 21 | 992.0 |
| 20260502233615 | 88 | 315 | 3.0 | 5.0 | 0.00 | 0.00 | 0.00 | 20 | 992.4 |
| 20260502233112 | 88 | 299 | 5.0 | 5.0 | 0.00 | 0.00 | 0.00 | 20 | 992.4 |
| 20260502232608 | 89 | 289 | 6.0 | 7.0 | 0.00 | 0.00 | 0.00 | 20 | 992.0 |
| 20260502232106 | 89 | 148 | 2.0 | 3.0 | 0.00 | 0.00 | 0.00 | 19 | 992.0 |
| 20260502231602 | 89 | 270 | 5.0 | 7.0 | 0.00 | 0.00 | 0.00 | 21 | 992.0 |
| 20260502231100 | 89 | 218 | 5.0 | 7.0 | 0.00 | 0.00 | 0.00 | 21 | 992.0 |
| 20260502230558 | 89 | 164 | 3.0 | 5.0 | 0.00 | 0.00 | 0.00 | 19 | 992.0 |
| 20260502230056 | 89 | 324 | 3.0 | 7.0 | 0.00 | 0.00 | 0.00 | 21 | 992.4 |
| 20260502225551 | 89 | 277 | 4.0 | 5.0 | 0.00 | 0.00 | 0.00 | 20 | 992.4 |
| 20260502225049 | 88 | 300 | 1.0 | 3.0 | 0.00 | 0.00 | 0.00 | 21 | 992.4 |
| 20260502224545 | 88 | 263 | 4.0 | 5.0 | 0.00 | 0.00 | 0.00 | 21 | 992.4 |
| 20260502224042 | 88 | 241 | 4.0 | 5.0 | 0.00 | 0.00 | 0.00 | 26 | 992.4 |
| 20260502223540 | 88 | 283 | 4.0 | 5.0 | 0.00 | 0.00 | 0.00 | 22 | 992.7 |
| 20260502223038 | 88 | 282 | 3.0 | 5.0 | 0.00 | 0.00 | 0.00 | 23 | 992.4 |
| 20260502222535 | 88 | 278 | 9.0 | 12.0 | 0.00 | 0.00 | 0.00 | 29 | 992.7 |
| 20260502222031 | 88 | 279 | 7.0 | 10.0 | 0.00 | 0.00 | 0.00 | 28 | 992.4 |
| 20260502221527 | 88 | 162 | 7.0 | 10.0 | 0.00 | 0.00 | 0.00 | 30 | 992.7 |
| 20260502221025 | 88 | 285 | 6.0 | 10.0 | 0.00 | 0.00 | 0.00 | 27 | 992.7 |
| 20260502220520 | 88 | 223 | 5.0 | 7.0 | 0.00 | 0.00 | 0.00 | 27 | 992.4 |
| 20260502220017 | 87 | 286 | 2.0 | 3.0 | 0.00 | 0.00 | 0.00 | 26 | 992.4 |
| 20260502215515 | 87 | 213 | 7.0 | 7.0 | 0.00 | 0.00 | 0.00 | 31 | 992.7 |
| 20260502215011 | 87 | 158 | 4.0 | 5.0 | 0.00 | 0.00 | 0.00 | 28 | 993.0 |
| 20260502214508 | 87 | 230 | 7.0 | 7.0 | 0.00 | 0.00 | 0.00 | 28 | 992.7 |
| 20260502214005 | 87 | 236 | 6.0 | 7.0 | 0.00 | 0.00 | 0.00 | 29 | 992.7 |
| 20260502213502 | 87 | 251 | 5.0 | 7.0 | 0.00 | 0.00 | 0.00 | 29 | 993.0 |
| 20260502213000 | 87 | 217 | 10.0 | 12.0 | 0.00 | 0.00 | 0.00 | 29 | 993.0 |
| 20260502212459 | 88 | 191 | 6.0 | 7.0 | 0.00 | 0.00 | 0.00 | 31 | 993.0 |
| 20260502211955 | 88 | 190 | 7.0 | 7.0 | 0.00 | 0.00 | 0.00 | 30 | 993.0 |
| 20260502211451 | 87 | 203 | 3.0 | 5.0 | 0.00 | 0.00 | 0.00 | 27 | 993.0 |
| 20260502210949 | 87 | 196 | 4.0 | 5.0 | 0.00 | 0.00 | 0.00 | 29 | 993.0 |
| 20260502210445 | 87 | 287 | 3.0 | 5.0 | 0.00 | 0.00 | 0.00 | 29 | 993.0 |
| 20260502205943 | 87 | 279 | 1.0 | 3.0 | 0.00 | 0.00 | 0.00 | 30 | 993.4 |
| 20260502205439 | 87 | 189 | 3.0 | 5.0 | 0.00 | 0.00 | 0.00 | 29 | 993.4 |
| 20260502204936 | 87 | 212 | 5.0 | 7.0 | 0.00 | 0.00 | 0.00 | 30 | 993.4 |
| 20260502204433 | 87 | 285 | 3.0 | 5.0 | 0.00 | 0.00 | 0.00 | 29 | 993.4 |
| 20260502203931 | 87 | 220 | 2.0 | 5.0 | 0.00 | 0.00 | 0.00 | 30 | 993.4 |
| 20260502203428 | 87 | 199 | 7.0 | 7.0 | 0.00 | 0.00 | 0.00 | 31 | 993.7 |
| 20260502202924 | 87 | 172 | 5.0 | 5.0 | 0.00 | 0.00 | 0.00 | 32 | 993.4 |
| 20260502202421 | 87 | 216 | 1.0 | 3.0 | 0.00 | 0.00 | 0.00 | 30 | 993.7 |
| 20260502201919 | 86 | 194 | 6.0 | 7.0 | 0.00 | 0.00 | 0.00 | 31 | 993.7 |
| 20260502201415 | 86 | 198 | 6.0 | 7.0 | 0.00 | 0.00 | 0.00 | 30 | 993.4 |
| 20260502200912 | 86 | 132 | 0.0 | 0.0 | 0.00 | 0.00 | 0.00 | 30 | 993.7 |